| time (UTC) | temp F | wind direction | speed MPH | gust MPH | rain 1hr in | rain 24hr in | rain mn in | humidity % | barometer mb |
| 20260504173705 | 60 | 27 | 1.0 | 4.0 | 0.00 | 0.06 | 0.06 | 71 | 1009.3 |
| 20260504173206 | 60 | 321 | 1.0 | 4.0 | 0.00 | 0.06 | 0.06 | 71 | 1009.3 |
| 20260504173016 | 60 | 338 | 1.0 | 4.0 | 0.00 | 0.06 | 0.06 | 71 | 1009.6 |
| 20260504172705 | 60 | 331 | 2.0 | 4.0 | 0.01 | 0.06 | 0.06 | 71 | 1009.3 |
| 20260504172206 | 60 | 336 | 1.0 | 5.0 | 0.01 | 0.06 | 0.06 | 71 | 1009.5 |
| 20260504171516 | 60 | 328 | 0.0 | 5.0 | 0.01 | 0.06 | 0.06 | 71 | 1009.8 |
| 20260504171206 | 60 | 323 | 2.0 | 5.0 | 0.02 | 0.06 | 0.06 | 71 | 1009.4 |
| 20260504170705 | 60 | 321 | 1.0 | 4.0 | 0.02 | 0.06 | 0.06 | 70 | 1009.5 |
| 20260504170205 | 60 | 32 | 1.0 | 4.0 | 0.02 | 0.06 | 0.06 | 70 | 1009.6 |
| 20260504160205 | 60 | 48 | 3.0 | 10.0 | 0.04 | 0.05 | 0.05 | 68 | 1010.1 |
| 20260504150706 | 62 | 13 | 4.0 | 10.0 | 0.00 | 0.01 | 0.01 | 63 | 1010.6 |
| 20260504150206 | 63 | 98 | 4.0 | 10.0 | 0.00 | 0.01 | 0.01 | 63 | 1010.6 |
| 20260504140705 | 63 | 59 | 4.0 | 11.0 | 0.00 | 0.01 | 0.01 | 62 | 1010.9 |
| 20260504140206 | 63 | 61 | 4.0 | 11.0 | 0.00 | 0.01 | 0.01 | 62 | 1011.0 |
| 20260504130723 | 62 | 19 | 3.0 | 9.0 | 0.00 | 0.01 | 0.01 | 63 | 1011.3 |
| 20260504130205 | 62 | 104 | 3.0 | 9.0 | 0.00 | 0.01 | 0.01 | 63 | 1011.4 |
| 20260504110705 | 59 | 344 | 4.0 | 9.0 | 0.00 | 0.01 | 0.01 | 64 | 1012.4 |
| 20260504110205 | 59 | 344 | 3.0 | 9.0 | 0.00 | 0.01 | 0.01 | 64 | 1012.7 |
| 20260504100205 | 58 | 5 | 4.0 | 13.0 | 0.00 | 0.01 | 0.01 | 64 | 1013.0 |
| 20260504081705 | 59 | 238 | 4.0 | 11.0 | 0.00 | 0.01 | 0.01 | 64 | 1012.6 |
| 20260504081536 | 58 | 355 | 3.0 | 10.0 | 0.00 | 0.01 | 0.01 | 64 | 1012.8 |
| 20260504081205 | 59 | 40 | 4.0 | 12.0 | 0.00 | 0.01 | 0.01 | 64 | 1012.4 |
| 20260504080705 | 60 | 331 | 5.0 | 12.0 | 0.00 | 0.01 | 0.01 | 64 | 1012.3 |
| 20260504080205 | 60 | 5 | 4.0 | 12.0 | 0.00 | 0.01 | 0.01 | 64 | 1012.2 |
| 20260504070206 | 64 | 97 | 4.0 | 7.0 | 0.00 | 0.01 | 0.01 | 66 | 1011.4 |
| 20260504050705 | 62 | 90 | 3.0 | 7.0 | 0.00 | 0.01 | 0.01 | 71 | 1011.0 |
| 20260504050206 | 62 | 96 | 3.0 | 7.0 | 0.00 | 0.01 | 0.01 | 71 | 1011.0 |
| 20260504050008 | 62 | 123 | 2.0 | 7.0 | 0.00 | 0.01 | 0.01 | 71 | 1011.4 |
| 20260504045705 | 62 | 89 | 3.0 | 8.0 | 0.00 | 0.01 | 0.01 | 71 | 1011.0 |
| 20260504044705 | 62 | 94 | 3.0 | 8.0 | 0.00 | 0.01 | 0.01 | 71 | 1011.1 |
| 20260504044511 | 62 | 67 | 1.0 | 8.0 | 0.00 | 0.01 | 0.01 | 71 | 1011.5 |
| 20260504044205 | 62 | 94 | 3.0 | 8.0 | 0.00 | 0.01 | 0.01 | 71 | 1011.2 |
| 20260504043705 | 62 | 118 | 3.0 | 8.0 | 0.00 | 0.01 | 0.01 | 71 | 1011.3 |
| 20260504043206 | 62 | 95 | 3.0 | 8.0 | 0.00 | 0.01 | 0.01 | 71 | 1011.2 |
| 20260504043005 | 62 | 88 | 1.0 | 8.0 | 0.00 | 0.01 | 0.01 | 71 | 1011.5 |
| 20260504042705 | 62 | 128 | 4.0 | 8.0 | 0.00 | 0.01 | 0.01 | 71 | 1011.2 |
| 20260504041705 | 62 | 116 | 4.0 | 8.0 | 0.00 | 0.01 | 0.01 | 71 | 1011.2 |
| 20260504041504 | 62 | 86 | 3.0 | 8.0 | 0.00 | 0.01 | 0.01 | 71 | 1011.6 |
| 20260504040205 | 62 | 101 | 5.0 | 11.0 | 0.00 | 0.01 | 0.01 | 71 | 1011.2 |
| 20260504040004 | 62 | 110 | 4.0 | 11.0 | 0.00 | 0.01 | 0.01 | 71 | 1011.6 |
| 20260504035706 | 62 | 117 | 6.0 | 12.0 | 0.00 | 0.01 | 0.01 | 71 | 1011.2 |
| 20260504035205 | 62 | 105 | 5.0 | 16.0 | 0.00 | 0.01 | 0.01 | 71 | 1011.2 |
| 20260504034705 | 62 | 46 | 6.0 | 16.0 | 0.00 | 0.01 | 0.01 | 71 | 1011.2 |
| 20260504034502 | 62 | 92 | 5.0 | 16.0 | 0.00 | 0.01 | 0.01 | 71 | 1011.6 |
| 20260504034206 | 62 | 81 | 6.0 | 16.0 | 0.00 | 0.01 | 0.01 | 71 | 1011.4 |
| 20260504033706 | 62 | 88 | 6.0 | 11.0 | 0.00 | 0.01 | 0.01 | 71 | 1011.5 |
| 20260504033206 | 62 | 88 | 6.0 | 11.0 | 0.00 | 0.01 | 0.01 | 71 | 1011.5 |
| 20260504033103 | 61 | 78 | 6.0 | 11.0 | 0.00 | 0.01 | 0.01 | 71 | 1011.8 |
| 20260504032705 | 62 | 117 | 6.0 | 13.0 | 0.00 | 0.01 | 0.01 | 71 | 1011.6 |
| 20260504032205 | 62 | 80 | 6.0 | 13.0 | 0.00 | 0.01 | 0.01 | 71 | 1011.6 |
| 20260504031705 | 62 | 153 | 5.0 | 11.0 | 0.00 | 0.01 | 0.01 | 71 | 1011.7 |
| 20260504031604 | 61 | 87 | 6.0 | 13.0 | 0.00 | 0.01 | 0.01 | 71 | 1012.0 |
| 20260504031206 | 62 | 94 | 5.0 | 11.0 | 0.00 | 0.01 | 0.01 | 71 | 1011.7 |
| 20260504030705 | 62 | 132 | 6.0 | 11.0 | 0.00 | 0.01 | 0.01 | 71 | 1011.7 |
| 20260504030206 | 62 | 138 | 5.0 | 10.0 | 0.00 | 0.01 | 0.01 | 70 | 1011.8 |
| 20260504030055 | 62 | 109 | 5.0 | 11.0 | 0.00 | 0.01 | 0.01 | 70 | 1012.1 |
| 20260504025705 | 62 | 71 | 3.0 | 7.0 | 0.00 | 0.01 | 0.01 | 70 | 1011.8 |
| 20260504025205 | 62 | 92 | 3.0 | 8.0 | 0.00 | 0.01 | 0.01 | 70 | 1011.9 |
| 20260504024705 | 62 | 101 | 4.0 | 8.0 | 0.00 | 0.01 | 0.01 | 70 | 1011.9 |
| 20260504024555 | 61 | 135 | 3.0 | 9.0 | 0.00 | 0.01 | 0.01 | 70 | 1012.3 |
| 20260504024206 | 62 | 92 | 4.0 | 11.0 | 0.00 | 0.01 | 0.01 | 70 | 1011.9 |
| 20260504023705 | 62 | 99 | 4.0 | 13.0 | 0.00 | 0.01 | 0.01 | 70 | 1012.0 |
| 20260504023206 | 62 | 76 | 5.0 | 13.0 | 0.00 | 0.01 | 0.01 | 70 | 1012.0 |
| 20260504023052 | 61 | 115 | 3.0 | 13.0 | 0.00 | 0.01 | 0.01 | 70 | 1012.4 |
| 20260504022206 | 62 | 108 | 5.0 | 14.0 | 0.00 | 0.01 | 0.01 | 70 | 1012.0 |
| 20260504021705 | 62 | 94 | 6.0 | 14.0 | 0.00 | 0.01 | 0.01 | 70 | 1012.1 |
| 20260504021550 | 61 | 87 | 6.0 | 14.0 | 0.00 | 0.01 | 0.01 | 70 | 1012.4 |
| 20260504021206 | 62 | 101 | 6.0 | 14.0 | 0.00 | 0.01 | 0.01 | 70 | 1012.2 |
| 20260504020705 | 62 | 98 | 6.0 | 16.0 | 0.00 | 0.01 | 0.01 | 70 | 1012.2 |
| 20260504020205 | 62 | 88 | 5.0 | 16.0 | 0.00 | 0.01 | 0.01 | 70 | 1012.2 |
| 20260504020049 | 61 | 84 | 6.0 | 16.0 | 0.00 | 0.01 | 0.01 | 70 | 1012.5 |
| 20260504015705 | 62 | 80 | 5.0 | 12.0 | 0.00 | 0.01 | 0.01 | 70 | 1012.2 |
| 20260504015206 | 62 | 91 | 5.0 | 12.0 | 0.00 | 0.01 | 0.01 | 70 | 1012.2 |
| 20260504014556 | 61 | 80 | 7.0 | 12.0 | 0.00 | 0.01 | 0.01 | 70 | 1012.5 |
| 20260504013205 | 61 | 161 | 5.0 | 13.0 | 0.00 | 0.01 | 0.01 | 70 | 1012.2 |
| 20260504013048 | 61 | 105 | 5.0 | 13.0 | 0.00 | 0.01 | 0.01 | 70 | 1012.6 |
| 20260504012705 | 61 | 69 | 5.0 | 13.0 | 0.00 | 0.01 | 0.01 | 70 | 1012.2 |
| 20260504012206 | 61 | 88 | 5.0 | 12.0 | 0.00 | 0.01 | 0.01 | 70 | 1012.2 |
| 20260504011706 | 61 | 113 | 5.0 | 12.0 | 0.00 | 0.01 | 0.01 | 70 | 1012.2 |
| 20260504011548 | 61 | 94 | 5.0 | 12.0 | 0.00 | 0.01 | 0.01 | 70 | 1012.6 |
| 20260504011205 | 61 | 111 | 5.0 | 12.0 | 0.00 | 0.01 | 0.01 | 70 | 1012.4 |
| 20260504010705 | 61 | 97 | 5.0 | 12.0 | 0.00 | 0.01 | 0.01 | 70 | 1012.4 |
| 20260504010051 | 61 | 138 | 6.0 | 12.0 | 0.00 | 0.01 | 0.01 | 69 | 1012.7 |
| 20260504005705 | 61 | 111 | 5.0 | 11.0 | 0.00 | 0.01 | 0.01 | 69 | 1012.4 |
| 20260504005206 | 61 | 78 | 4.0 | 11.0 | 0.00 | 0.01 | 0.01 | 69 | 1012.4 |
| 20260504004705 | 61 | 94 | 4.0 | 12.0 | 0.00 | 0.01 | 0.01 | 69 | 1012.4 |
| 20260504004542 | 61 | 96 | 3.0 | 10.0 | 0.00 | 0.01 | 0.01 | 69 | 1012.8 |
| 20260504004205 | 61 | 118 | 6.0 | 12.0 | 0.00 | 0.01 | 0.01 | 69 | 1012.4 |
| 20260504003705 | 61 | 73 | 6.0 | 12.0 | 0.00 | 0.01 | 0.01 | 69 | 1012.6 |
| 20260504003206 | 61 | 104 | 6.0 | 13.0 | 0.00 | 0.01 | 0.01 | 69 | 1012.6 |
| 20260504003041 | 61 | 83 | 5.0 | 12.0 | 0.00 | 0.01 | 0.01 | 69 | 1012.9 |
| 20260504002705 | 61 | 106 | 6.0 | 13.0 | 0.00 | 0.01 | 0.01 | 69 | 1012.6 |
| 20260504002206 | 61 | 83 | 6.0 | 13.0 | 0.00 | 0.01 | 0.01 | 69 | 1012.6 |
| 20260504001705 | 61 | 92 | 6.0 | 11.0 | 0.00 | 0.01 | 0.01 | 69 | 1012.7 |
| 20260504001545 | 61 | 110 | 6.0 | 11.0 | 0.00 | 0.01 | 0.01 | 69 | 1012.9 |
| 20260504001206 | 61 | 150 | 5.0 | 8.0 | 0.01 | 0.01 | 0.01 | 69 | 1012.6 |
| 20260504000705 | 61 | 136 | 3.0 | 9.0 | 0.01 | 0.01 | 0.01 | 69 | 1012.7 |
| 20260504000206 | 61 | 94 | 3.0 | 9.0 | 0.01 | 0.01 | 0.01 | 69 | 1012.8 |
| 20260504000042 | 60 | 114 | 3.0 | 9.0 | 0.01 | 0.01 | 0.01 | 69 | 1013.2 |
| 20260503235705 | 61 | 97 | 3.0 | 9.0 | 0.01 | 0.01 | 0.01 | 69 | 1012.9 |
| 20260503235231 | 61 | 94 | 3.0 | 9.0 | 0.01 | 0.01 | 0.01 | 69 | 1013.0 |
| 20260503234705 | 61 | 114 | 4.0 | 12.0 | 0.01 | 0.01 | 0.01 | 68 | 1013.0 |
| 20260503234532 | 60 | 100 | 2.0 | 9.0 | 0.01 | 0.01 | 0.01 | 68 | 1013.4 |
| 20260503234205 | 61 | 125 | 4.0 | 12.0 | 0.01 | 0.01 | 0.01 | 68 | 1013.1 |
| 20260503233705 | 61 | 145 | 4.0 | 12.0 | 0.01 | 0.01 | 0.01 | 68 | 1013.1 |
| 20260503233030 | 60 | 184 | 4.0 | 11.0 | 0.01 | 0.01 | 0.01 | 68 | 1013.5 |
| 20260503232705 | 61 | 88 | 6.0 | 14.0 | 0.01 | 0.01 | 0.01 | 68 | 1013.2 |
| 20260503232206 | 61 | 84 | 5.0 | 14.0 | 0.01 | 0.01 | 0.01 | 68 | 1013.3 |
| 20260503231705 | 61 | 132 | 3.0 | 9.0 | 0.01 | 0.01 | 0.01 | 68 | 1013.3 |
| 20260503231527 | 61 | 92 | 2.0 | 8.0 | 0.01 | 0.01 | 0.01 | 68 | 1013.7 |
| 20260503231206 | 61 | 96 | 3.0 | 9.0 | 0.00 | 0.00 | 0.00 | 68 | 1013.3 |
| 20260503230205 | 61 | 102 | 5.0 | 10.0 | 0.00 | 0.00 | 0.00 | 68 | 1013.3 |
| 20260503230026 | 61 | 90 | 5.0 | 10.0 | 0.00 | 0.00 | 0.00 | 68 | 1013.7 |
| 20260503225705 | 61 | 99 | 4.0 | 9.0 | 0.00 | 0.00 | 0.00 | 68 | 1013.4 |
| 20260503225206 | 61 | 97 | 4.0 | 9.0 | 0.00 | 0.00 | 0.00 | 68 | 1013.4 |
| 20260503224705 | 61 | 95 | 5.0 | 11.0 | 0.00 | 0.00 | 0.00 | 67 | 1013.4 |
| 20260503224528 | 61 | 67 | 4.0 | 9.0 | 0.00 | 0.00 | 0.00 | 68 | 1013.7 |
| 20260503224205 | 61 | 98 | 5.0 | 11.0 | 0.00 | 0.00 | 0.00 | 67 | 1013.4 |
| 20260503223205 | 61 | 128 | 5.0 | 12.0 | 0.00 | 0.00 | 0.00 | 67 | 1013.5 |
| 20260503223021 | 61 | 111 | 4.0 | 12.0 | 0.00 | 0.00 | 0.00 | 67 | 1013.9 |
| 20260503222206 | 62 | 107 | 4.0 | 10.0 | 0.00 | 0.00 | 0.00 | 67 | 1013.6 |
| 20260503221706 | 62 | 66 | 4.0 | 12.0 | 0.00 | 0.00 | 0.00 | 67 | 1013.7 |
| 20260503221519 | 61 | 86 | 4.0 | 8.0 | 0.00 | 0.00 | 0.00 | 67 | 1014.2 |
| 20260503221205 | 62 | 111 | 4.0 | 12.0 | 0.00 | 0.00 | 0.00 | 67 | 1013.8 |
| 20260503220705 | 62 | 105 | 4.0 | 13.0 | 0.00 | 0.00 | 0.00 | 67 | 1013.9 |
| 20260503220205 | 62 | 95 | 5.0 | 13.0 | 0.00 | 0.00 | 0.00 | 67 | 1014.0 |
| 20260503220020 | 61 | 106 | 3.0 | 10.0 | 0.00 | 0.00 | 0.00 | 67 | 1014.3 |
| 20260503215705 | 62 | 93 | 5.0 | 13.0 | 0.00 | 0.00 | 0.00 | 67 | 1014.0 |
| 20260503215206 | 62 | 97 | 4.0 | 13.0 | 0.00 | 0.00 | 0.00 | 67 | 1014.1 |
| 20260503214705 | 62 | 109 | 4.0 | 13.0 | 0.00 | 0.00 | 0.00 | 67 | 1014.1 |
| 20260503214524 | 62 | 130 | 3.0 | 12.0 | 0.00 | 0.00 | 0.00 | 66 | 1014.4 |
| 20260503214206 | 62 | 132 | 6.0 | 13.0 | 0.00 | 0.00 | 0.00 | 66 | 1014.1 |
| 20260503213705 | 62 | 64 | 6.0 | 12.0 | 0.00 | 0.00 | 0.00 | 66 | 1014.1 |
| 20260503213205 | 62 | 84 | 6.0 | 12.0 | 0.00 | 0.00 | 0.00 | 66 | 1014.0 |
| 20260503213015 | 62 | 95 | 5.0 | 12.0 | 0.00 | 0.00 | 0.00 | 66 | 1014.4 |
| 20260503212705 | 62 | 113 | 6.0 | 12.0 | 0.00 | 0.00 | 0.00 | 66 | 1014.1 |
| 20260503212206 | 62 | 84 | 6.0 | 10.0 | 0.00 | 0.00 | 0.00 | 66 | 1014.1 |
| 20260503211705 | 62 | 93 | 5.0 | 10.0 | 0.00 | 0.00 | 0.00 | 66 | 1014.2 |
| 20260503211514 | 62 | 106 | 4.0 | 10.0 | 0.00 | 0.00 | 0.00 | 66 | 1014.6 |
| 20260503210205 | 62 | 99 | 5.0 | 12.0 | 0.00 | 0.00 | 0.00 | 66 | 1014.4 |
| 20260503210036 | 62 | 130 | 4.0 | 12.0 | 0.00 | 0.00 | 0.00 | 66 | 1014.8 |
| 20260503205705 | 63 | 106 | 6.0 | 12.0 | 0.00 | 0.00 | 0.00 | 66 | 1014.3 |
| 20260503205205 | 63 | 92 | 5.0 | 12.0 | 0.00 | 0.00 | 0.00 | 66 | 1014.3 |
| 20260503204705 | 63 | 83 | 6.0 | 10.0 | 0.00 | 0.00 | 0.00 | 66 | 1014.2 |
| 20260503204513 | 62 | 129 | 5.0 | 10.0 | 0.00 | 0.00 | 0.00 | 66 | 1014.6 |
| 20260503204205 | 63 | 81 | 5.0 | 14.0 | 0.00 | 0.00 | 0.00 | 66 | 1014.3 |
| 20260503203205 | 63 | 90 | 7.0 | 14.0 | 0.00 | 0.00 | 0.00 | 65 | 1014.2 |
| 20260503203014 | 62 | 98 | 9.0 | 14.0 | 0.00 | 0.00 | 0.00 | 65 | 1014.5 |
| 20260503202705 | 63 | 88 | 7.0 | 14.0 | 0.00 | 0.00 | 0.00 | 65 | 1014.2 |
| 20260503202206 | 63 | 95 | 7.0 | 14.0 | 0.00 | 0.00 | 0.00 | 65 | 1014.1 |
| 20260503201705 | 63 | 92 | 6.0 | 13.0 | 0.00 | 0.00 | 0.00 | 65 | 1014.1 |
| 20260503201513 | 62 | 118 | 6.0 | 13.0 | 0.00 | 0.00 | 0.00 | 65 | 1014.4 |
| 20260503201205 | 63 | 92 | 6.0 | 13.0 | 0.00 | 0.00 | 0.00 | 65 | 1014.1 |
| 20260503200705 | 63 | 154 | 7.0 | 13.0 | 0.00 | 0.00 | 0.00 | 65 | 1014.2 |
| 20260503200206 | 63 | 98 | 7.0 | 13.0 | 0.00 | 0.00 | 0.00 | 64 | 1014.2 |
| 20260503200016 | 62 | 96 | 7.0 | 13.0 | 0.00 | 0.00 | 0.00 | 64 | 1014.6 |
| 20260503195705 | 63 | 132 | 6.0 | 12.0 | 0.00 | 0.00 | 0.00 | 64 | 1014.2 |
| 20260503195206 | 63 | 94 | 6.0 | 13.0 | 0.00 | 0.00 | 0.00 | 64 | 1014.1 |
| 20260503194705 | 63 | 128 | 6.0 | 13.0 | 0.00 | 0.00 | 0.00 | 64 | 1014.1 |
| 20260503194512 | 62 | 122 | 5.0 | 11.0 | 0.00 | 0.00 | 0.00 | 63 | 1014.5 |
| 20260503194206 | 63 | 85 | 6.0 | 13.0 | 0.00 | 0.00 | 0.00 | 63 | 1014.1 |
| 20260503193011 | 62 | 129 | 6.0 | 17.0 | 0.00 | 0.00 | 0.00 | 63 | 1014.3 |
| 20260503192206 | 63 | 84 | 6.0 | 15.0 | 0.00 | 0.00 | 0.00 | 63 | 1013.9 |
| 20260503191705 | 62 | 65 | 5.0 | 13.0 | 0.00 | 0.00 | 0.00 | 63 | 1013.9 |
| 20260503191510 | 62 | 107 | 5.0 | 11.0 | 0.00 | 0.00 | 0.00 | 63 | 1014.3 |
| 20260503191205 | 62 | 111 | 5.0 | 14.0 | 0.00 | 0.00 | 0.00 | 64 | 1013.9 |
| 20260503190705 | 62 | 76 | 5.0 | 18.0 | 0.00 | 0.00 | 0.00 | 64 | 1013.9 |
| 20260503190206 | 63 | 130 | 6.0 | 18.0 | 0.00 | 0.00 | 0.00 | 64 | 1013.8 |
| 20260503190012 | 62 | 119 | 4.0 | 14.0 | 0.00 | 0.00 | 0.00 | 64 | 1014.1 |
| 20260503185706 | 63 | 95 | 7.0 | 18.0 | 0.00 | 0.00 | 0.00 | 65 | 1013.8 |
| 20260503185206 | 63 | 115 | 6.0 | 14.0 | 0.00 | 0.00 | 0.00 | 65 | 1013.8 |
| 20260503184705 | 63 | 114 | 6.0 | 13.0 | 0.00 | 0.00 | 0.00 | 65 | 1013.8 |
| 20260503184510 | 62 | 94 | 5.0 | 12.0 | 0.00 | 0.00 | 0.00 | 65 | 1014.2 |
| 20260503184206 | 63 | 86 | 7.0 | 13.0 | 0.00 | 0.00 | 0.00 | 65 | 1013.8 |
| 20260503183706 | 63 | 88 | 7.0 | 14.0 | 0.00 | 0.00 | 0.00 | 65 | 1013.8 |
| 20260503183206 | 63 | 69 | 7.0 | 14.0 | 0.00 | 0.00 | 0.00 | 65 | 1013.6 |
| 20260503183008 | 63 | 55 | 6.0 | 14.0 | 0.00 | 0.00 | 0.00 | 65 | 1014.0 |
| 20260503181705 | 63 | 98 | 9.0 | 17.0 | 0.00 | 0.00 | 0.00 | 65 | 1013.6 |
| 20260503181507 | 63 | 101 | 10.0 | 17.0 | 0.00 | 0.00 | 0.00 | 65 | 1014.0 |
| 20260503180705 | 64 | 84 | 7.0 | 18.0 | 0.00 | 0.00 | 0.00 | 65 | 1013.7 |
| 20260503180205 | 64 | 125 | 9.0 | 18.0 | 0.00 | 0.00 | 0.00 | 64 | 1013.8 |
| 20260503180006 | 63 | 100 | 9.0 | 18.0 | 0.00 | 0.00 | 0.00 | 64 | 1014.2 |
| 20260503175206 | 64 | 92 | 7.0 | 19.0 | 0.00 | 0.00 | 0.00 | 64 | 1013.9 |
| 20260503174705 | 64 | 150 | 7.0 | 19.0 | 0.00 | 0.00 | 0.00 | 64 | 1013.9 |
| 20260503174504 | 63 | 122 | 6.0 | 19.0 | 0.00 | 0.00 | 0.00 | 64 | 1014.3 |
| 20260503174206 | 64 | 128 | 8.0 | 15.0 | 0.00 | 0.00 | 0.00 | 63 | 1013.9 |